User: anonymous   Login
Location: Fort Wayne
(41.1310°N, 85.1290°W)
Time: 22:31:47
(UTC-04:00)
Language:

Cosmos 2082 - Orbit

View from above orbital plane
View from above orbital plane
View from above satellite
View from above satellite

Ground track
Ground track

The orbit data is extracted from the following two-line orbital elements,

1 20624U 90046A   17087.91680644 +.00000298 +00000-0 +18075-3 0  9997
2 20624 071.0431 022.5740 0014165 157.2598 202.9154 14.14223884385620
Epoch (UTC): 28 March 2017 22:00:12
Eccentricity: 0.0014165
inclination: 71.0431°
perigee height: 835 km
apogee height: 855 km
right ascension of ascending node: 22.5740°
argument of perigee: 157.2598°
revolutions per day: 14.14223884
mean anomaly at epoch: 202.9154°
orbit number at epoch: 38562

The dashed part of the orbit path shows where the satellite is in the earth's shadow,  

DLR